Change the Weather History Date:

Thursday, February 28, 2013

  Actual Average Record
Temperature  
Mean Temperature 26 °F -  
Max Temperature 32 °F 33 °F 58 °F (1932)
Min Temperature 19 °F 10 °F -26 °F (1962)
Degree Days  
Heating Degree Days 40    
Moisture  
Dew Point 17 °F    
Average Humidity 64    
Maximum Humidity 74    
Minimum Humidity 51    
Precipitation  
Precipitation 0.00 in - - ()
Sea Level Pressure  
Sea Level Pressure 30.17 in    
Wind  
Wind Speed 5 mph (NE)    
Max Wind Speed 9 mph    
Max Gust Speed -    
Visibility 10 miles    
Events      
Averages and records for this station are not official NWS values.
T = Trace of Precipitation, MM = Missing Value Source: NWS Daily Summary

Daily Weather History Graph

Daily Weather History Graph

Search for Another Location

Airport or City:

Trip Planner

Search our weather history database for the weather conditions in past years. The results will help you decide how hot, cold, wet, or windy it might be!

Date:

Astronomy

Feb. 28, 2013 Rise Set
Actual Time 6:53 AM CST 5:58 PM CST
Civil Twilight 6:23 AM CST 6:28 PM CST
Nautical Twilight 5:48 AM CST 7:03 PM CST
Astronomical Twilight 5:14 AM CST 7:37 PM CST
Moon 9:40 PM CST (2/28) 7:50 AM CST (2/28)
Length of Visible Light 12h 05m
Length of Day
11h 05m
Waning Gibbous, 90% of the Moon is Illuminated
Feb 28
Waning Gibbous
Mar 4
Last Quarter
Mar 11
New
Mar 19
First Quarter
Mar 27
Full

Hourly Weather History & Observations

Time (CST) Temp. Windchill Dew Point Humidity Pressure Visibility Wind Dir Wind Speed Gust Speed Precip Events Conditions
12:13 AM 32.0 °F 24.8 °F 21.2 °F 64% 30.05 in 10.0 mi NE 8.1 mph - N/A   Overcast
12:32 AM 32.0 °F 26.4 °F 21.2 °F 64% 30.05 in 10.0 mi NNE 5.8 mph - N/A   Overcast
12:52 AM 32.0 °F 28.7 °F 21.2 °F 64% 30.06 in 10.0 mi North 3.5 mph - N/A   Overcast
1:12 AM 32.0 °F 28.7 °F 21.2 °F 64% 30.06 in 10.0 mi NNE 3.5 mph - N/A   Overcast
1:32 AM 32.0 °F 28.7 °F 21.2 °F 64% 30.06 in 10.0 mi North 3.5 mph - N/A   Overcast
1:53 AM 32.0 °F 28.7 °F 21.2 °F 64% 30.07 in 10.0 mi North 3.5 mph - N/A   Overcast
2:12 AM 30.2 °F 26.7 °F 19.4 °F 64% 30.07 in 10.0 mi NNE 3.5 mph - N/A   Overcast
2:32 AM 30.2 °F 25.4 °F 19.4 °F 64% 30.07 in 10.0 mi NE 4.6 mph - N/A   Overcast
2:52 AM 30.2 °F 24.3 °F 19.4 °F 64% 30.07 in 10.0 mi NNE 5.8 mph - N/A   Overcast
3:12 AM 30.2 °F - 19.4 °F 64% 30.07 in 10.0 mi Calm Calm - N/A   Overcast
3:52 AM 30.2 °F 25.4 °F 21.2 °F 69% 30.09 in 10.0 mi North 4.6 mph - N/A   Overcast
4:32 AM 28.4 °F 22.2 °F 19.4 °F 69% 30.10 in 10.0 mi North 5.8 mph - N/A   Overcast
4:52 AM 28.4 °F 21.2 °F 19.4 °F 69% 30.11 in 10.0 mi North 6.9 mph - N/A   Overcast
5:12 AM 28.4 °F 22.2 °F 19.4 °F 69% 30.11 in 10.0 mi North 5.8 mph - N/A   Overcast
5:32 AM 28.4 °F 20.4 °F 19.4 °F 69% 30.12 in 10.0 mi North 8.1 mph - N/A   Overcast
5:53 AM 28.4 °F 22.2 °F 19.4 °F 69% 30.12 in 10.0 mi NNE 5.8 mph - N/A   Overcast
6:12 AM 26.6 °F 22.6 °F 17.6 °F 69% 30.13 in 10.0 mi NNE 3.5 mph - N/A   Overcast
6:33 AM 26.6 °F 20.0 °F 17.6 °F 69% 30.14 in 10.0 mi NNE 5.8 mph - N/A   Overcast
6:52 AM 26.6 °F 22.6 °F 17.6 °F 69% 30.14 in 10.0 mi NNE 3.5 mph - N/A   Overcast
7:12 AM 26.6 °F 19.1 °F 17.6 °F 69% 30.14 in 10.0 mi NE 6.9 mph - N/A   Overcast
7:32 AM 26.6 °F 21.2 °F 17.6 °F 69% 30.15 in 10.0 mi NNE 4.6 mph - N/A   Overcast
8:12 AM 26.6 °F 21.2 °F 17.6 °F 69% 30.16 in 10.0 mi NNE 4.6 mph - N/A   Overcast
8:32 AM 26.6 °F 22.6 °F 17.6 °F 69% 30.16 in 10.0 mi North 3.5 mph - N/A   Overcast
8:52 AM 26.6 °F 20.0 °F 17.6 °F 69% 30.16 in 10.0 mi NNE 5.8 mph - N/A   Overcast
9:13 AM 26.6 °F 21.2 °F 17.6 °F 69% 30.17 in 10.0 mi NNE 4.6 mph - N/A   Overcast
9:52 AM 28.4 °F 23.3 °F 17.6 °F 64% 30.17 in 10.0 mi NE 4.6 mph - N/A   Overcast
10:12 AM 28.4 °F 22.2 °F 17.6 °F 64% 30.17 in 10.0 mi North 5.8 mph - N/A   Overcast
10:32 AM 28.4 °F 22.2 °F 17.6 °F 64% 30.18 in 10.0 mi NNE 5.8 mph - N/A   Overcast
10:52 AM 28.4 °F 22.2 °F 17.6 °F 64% 30.18 in 10.0 mi NE 5.8 mph - N/A   Overcast
11:12 AM 28.4 °F 23.3 °F 17.6 °F 64% 30.18 in 10.0 mi North 4.6 mph - N/A   Overcast
11:32 AM 28.4 °F 22.2 °F 17.6 °F 64% 30.19 in 10.0 mi NNE 5.8 mph - N/A   Overcast
11:52 AM 28.4 °F 21.2 °F 17.6 °F 64% 30.19 in 10.0 mi ENE 6.9 mph - N/A   Overcast
12:12 PM 30.2 °F 25.4 °F 17.6 °F 60% 30.19 in 10.0 mi NE 4.6 mph - N/A   Overcast
12:32 PM 28.4 °F 23.3 °F 17.6 °F 64% 30.19 in 10.0 mi NNE 4.6 mph - N/A   Overcast
12:52 PM 28.4 °F 22.2 °F 17.6 °F 64% 30.19 in 10.0 mi NE 5.8 mph - N/A   Overcast
1:13 PM 30.2 °F 24.3 °F 17.6 °F 60% 30.19 in 10.0 mi ENE 5.8 mph - N/A   Overcast
1:32 PM 30.2 °F 24.3 °F 17.6 °F 60% 30.19 in 10.0 mi ENE 5.8 mph - N/A   Overcast
1:53 PM 30.2 °F 23.4 °F 17.6 °F 60% 30.19 in 10.0 mi ENE 6.9 mph - N/A   Overcast
2:12 PM 30.2 °F 22.6 °F 15.8 °F 55% 30.19 in 10.0 mi ENE 8.1 mph - N/A   Overcast
2:32 PM 30.2 °F 24.3 °F 17.6 °F 60% 30.18 in 10.0 mi ENE 5.8 mph - N/A   Overcast
2:52 PM 30.2 °F 23.4 °F 15.8 °F 55% 30.18 in 10.0 mi NE 6.9 mph - N/A   Overcast
3:12 PM 30.2 °F 24.3 °F 15.8 °F 55% 30.19 in 10.0 mi ENE 5.8 mph - N/A   Overcast
3:33 PM 30.2 °F 24.3 °F 15.8 °F 55% 30.19 in 10.0 mi NE 5.8 mph - N/A   Mostly Cloudy
3:52 PM 30.2 °F 21.9 °F 14.0 °F 51% 30.20 in 10.0 mi ENE 9.2 mph - N/A   Scattered Clouds
4:13 PM 30.2 °F 23.4 °F 15.8 °F 55% 30.20 in 10.0 mi ENE 6.9 mph - N/A   Scattered Clouds
4:32 PM 30.2 °F 24.3 °F 15.8 °F 55% 30.20 in 10.0 mi NE 5.8 mph - N/A   Scattered Clouds
4:52 PM 30.2 °F 24.3 °F 14.0 °F 51% 30.20 in 10.0 mi NE 5.8 mph - N/A   Clear
5:12 PM 28.4 °F 21.2 °F 14.0 °F 55% 30.20 in 10.0 mi NE 6.9 mph - N/A   Clear
5:32 PM 26.6 °F 19.1 °F 12.2 °F 55% 30.21 in 10.0 mi NE 6.9 mph - N/A   Clear
5:52 PM 26.6 °F 22.6 °F 14.0 °F 59% 30.21 in 10.0 mi ENE 3.5 mph - N/A   Clear
6:12 PM 26.6 °F 22.6 °F 14.0 °F 59% 30.22 in 10.0 mi ENE 3.5 mph - N/A   Clear
6:32 PM 26.6 °F - 14.0 °F 59% 30.22 in 10.0 mi Calm Calm - N/A   Clear
6:52 PM 24.8 °F - 14.0 °F 64% 30.22 in 10.0 mi Calm Calm - N/A   Clear
7:12 PM 24.8 °F 20.5 °F 12.2 °F 59% 30.23 in 10.0 mi NE 3.5 mph - N/A   Clear
7:32 PM 24.8 °F 19.1 °F 12.2 °F 59% 30.23 in 10.0 mi NE 4.6 mph - N/A   Clear
7:52 PM 24.8 °F 20.5 °F 12.2 °F 59% 30.23 in 10.0 mi NNE 3.5 mph - N/A   Clear
8:12 PM 24.8 °F 19.1 °F 14.0 °F 64% 30.23 in 10.0 mi NE 4.6 mph - N/A   Clear
8:32 PM 23.0 °F 17.0 °F 14.0 °F 68% 30.23 in 10.0 mi NE 4.6 mph - N/A   Clear
8:52 PM 23.0 °F 18.4 °F 12.2 °F 63% 30.24 in 10.0 mi NNE 3.5 mph - N/A   Clear
9:12 PM 23.0 °F - 12.2 °F 63% 30.24 in 10.0 mi Calm Calm - N/A   Clear
9:32 PM 21.2 °F 13.6 °F 12.2 °F 68% 30.24 in 10.0 mi NE 5.8 mph - N/A   Clear
10:12 PM 21.2 °F 13.6 °F 12.2 °F 68% 30.25 in 10.0 mi NE 5.8 mph - N/A   Clear
10:32 PM 21.2 °F 13.6 °F 12.2 °F 68% 30.26 in 10.0 mi NE 5.8 mph - N/A   Clear
10:52 PM 21.2 °F 12.6 °F 12.2 °F 68% 30.25 in 10.0 mi NE 6.9 mph - N/A   Clear
11:12 PM 21.2 °F 16.4 °F 12.2 °F 68% 30.25 in 10.0 mi ENE 3.5 mph - N/A   Clear
11:32 PM 19.4 °F 11.5 °F 12.2 °F 74% 30.25 in 10.0 mi ENE 5.8 mph - N/A   Clear
11:52 PM 19.4 °F 12.8 °F 12.2 °F 74% 30.25 in 10.0 mi ENE 4.6 mph - N/A   Clear